FW2156 Weather Reports


Display with metric or nautical units.
time (UTC)temp
F
wind
direction
speed
MPH
gust
MPH
rain 1hr
in
rain 24hr
in
rain mn
in
humidity
%
barometer
mb
20260509040810 60 116 0.0 1.0 0.00 0.00 0.00 40 1010.2
20260509040313 60 85 2.0 5.0 0.00 0.00 0.00 40 1010.2
20260509035813 60 137 0.0 1.0 0.00 0.00 0.00 40 1009.8
20260509035311 60 122 1.0 1.0 0.00 0.00 0.00 39 1009.8
20260509034812 61 138 2.0 2.0 0.00 0.00 0.00 39 1009.8
20260509034310 61 157 1.0 2.0 0.00 0.00 0.00 39 1010.2
20260509033812 61 123 0.0 1.0 0.00 0.00 0.00 39 1009.8
20260509033339 61 93 2.0 3.0 0.00 0.00 0.00 38 1009.8
20260509032839 61 125 2.0 3.0 0.00 0.00 0.00 39 1009.5
20260509032341 61 86 4.0 5.0 0.00 0.00 0.00 38 1009.8
20260509031828 61 150 0.0 1.0 0.00 0.00 0.00 38 1009.8
20260509031326 61 132 1.0 2.0 0.00 0.00 0.00 38 1009.5
20260509030827 62 24 2.0 3.0 0.00 0.00 0.00 38 1009.1
20260509030326 62 127 0.0 1.0 0.00 0.00 0.00 38 1009.1
20260509025825 62 51 1.0 2.0 0.00 0.00 0.00 37 1009.1
20260509025325 62 187 1.0 1.0 0.00 0.00 0.00 38 1009.1
20260509024825 62 180 0.0 0.0 0.00 0.00 0.00 38 1008.8
20260509024330 62 30 0.0 1.0 0.00 0.00 0.00 37 1009.1
20260509023827 62 137 0.0 1.0 0.00 0.00 0.00 37 1008.8
20260509023326 62 167 0.0 1.0 0.00 0.00 0.00 37 1009.1
20260509022825 62 271 1.0 1.0 0.00 0.00 0.00 37 1008.8
20260509022326 62 85 3.0 5.0 0.00 0.00 0.00 37 1008.8
20260509021825 63 93 2.0 2.0 0.00 0.00 0.00 37 1008.8
20260509021323 63 83 1.0 1.0 0.00 0.00 0.00 37 1008.8
20260509020823 63 130 2.0 3.0 0.00 0.00 0.00 37 1008.5
20260509020324 63 72 6.0 8.0 0.00 0.00 0.00 37 1008.8
20260509015824 63 84 4.0 6.0 0.00 0.00 0.00 36 1008.5
20260509015324 63 92 5.0 8.0 0.00 0.00 0.00 37 1008.5
20260509014824 63 117 1.0 2.0 0.00 0.00 0.00 37 1008.5
20260509014325 63 207 3.0 5.0 0.00 0.00 0.00 37 1008.5
20260509013823 64 73 3.0 3.0 0.00 0.00 0.00 37 1008.5
20260509013323 64 28 3.0 5.0 0.00 0.00 0.00 36 1008.5
20260509012824 64 102 4.0 5.0 0.00 0.00 0.00 36 1008.5
20260509012323 64 131 6.0 8.0 0.00 0.00 0.00 36 1008.1
20260509011825 64 0 2.0 3.0 0.00 0.00 0.00 36 1008.5
20260509011323 65 185 0.0 1.0 0.00 0.00 0.00 36 1008.5
20260509010841 65 4 4.0 9.0 0.00 0.00 0.00 36 1008.1
20260509010342 65 106 5.0 8.0 0.00 0.00 0.00 36 1008.1
20260509005841 65 111 0.0 1.0 0.00 0.00 0.00 36 1008.5
20260509005338 66 41 3.0 3.0 0.00 0.00 0.00 36 1008.1
20260509004838 66 70 1.0 2.0 0.00 0.00 0.00 36 1008.1
20260509004341 66 207 1.0 3.0 0.00 0.00 0.00 35 1008.1
20260509003840 66 46 0.0 1.0 0.00 0.00 0.00 35 1008.1
20260509003340 66 20 3.0 6.0 0.00 0.00 0.00 35 1008.1
20260509002838 67 19 3.0 3.0 0.00 0.00 0.00 34 1008.1
20260509002342 67 138 2.0 2.0 0.00 0.00 0.00 34 1008.1
20260509001841 67 107 2.0 3.0 0.00 0.00 0.00 34 1007.8
20260509001341 67 276 2.0 3.0 0.00 0.00 0.00 33 1008.1
20260509000826 67 158 3.0 6.0 0.00 0.00 0.00 33 1008.1
20260509000326 67 116 2.0 3.0 0.00 0.00 0.00 34 1008.1
20260508235827 67 42 3.0 5.0 0.00 0.00 0.00 34 1008.1
20260508235322 67 323 2.0 6.0 0.00 0.00 0.00 34 1008.1
20260508234821 68 50 1.0 2.0 0.00 0.00 0.00 34 1008.1
20260508234322 68 337 1.0 2.0 0.00 0.00 0.00 33 1007.8
20260508233821 68 194 2.0 3.0 0.00 0.00 0.00 33 1008.1
20260508233322 68 260 4.0 7.0 0.00 0.00 0.00 33 1007.8
20260508232821 68 144 3.0 3.0 0.00 0.00 0.00 33 1008.1
20260508232318 68 168 4.0 5.0 0.00 0.00 0.00 33 1007.8
20260508231819 68 204 1.0 1.0 0.00 0.00 0.00 33 1007.8
20260508231319 68 123 1.0 1.0 0.00 0.00 0.00 33 1007.8
20260508230819 68 136 3.0 7.0 0.00 0.00 0.00 33 1008.1
20260508230321 68 53 3.0 5.0 0.00 0.00 0.00 33 1008.1
20260508225817 68 195 2.0 5.0 0.00 0.00 0.00 32 1008.1
20260508225320 68 346 5.0 6.0 0.00 0.00 0.00 32 1008.1
20260508224820 68 164 3.0 3.0 0.00 0.00 0.00 32 1007.8
20260508224318 68 262 2.0 5.0 0.00 0.00 0.00 32 1007.8
20260508223818 68 112 4.0 7.0 0.00 0.00 0.00 32 1007.8
20260508223317 69 75 5.0 9.0 0.00 0.00 0.00 32 1007.8
20260508222818 69 319 3.0 3.0 0.00 0.00 0.00 32 1007.5
20260508222317 69 13 3.0 7.0 0.00 0.00 0.00 32 1007.5
20260508221818 69 132 0.0 1.0 0.00 0.00 0.00 32 1007.5
20260508221317 69 23 6.0 8.0 0.00 0.00 0.00 32 1007.8
20260508220817 69 137 1.0 2.0 0.00 0.00 0.00 32 1007.8
20260508220315 69 137 4.0 6.0 0.00 0.00 0.00 32 1007.5
20260508215816 70 41 2.0 3.0 0.00 0.00 0.00 32 1007.5
20260508215317 70 108 2.0 3.0 0.00 0.00 0.00 32 1007.5
20260508214815 71 93 2.0 2.0 0.00 0.00 0.00 32 1007.5
20260508214315 71 66 4.0 6.0 0.00 0.00 0.00 32 1007.8
20260508213816 71 128 1.0 2.0 0.00 0.00 0.00 31 1007.8
20260508213315 71 94 2.0 2.0 0.00 0.00 0.00 31 1007.8
20260508212815 72 218 2.0 3.0 0.00 0.00 0.00 31 1007.5
20260508212315 72 111 3.0 5.0 0.00 0.00 0.00 30 1007.8
20260508211814 72 211 0.0 1.0 0.00 0.00 0.00 31 1007.8
20260508211316 72 234 2.0 2.0 0.00 0.00 0.00 31 1007.8
20260508210815 72 205 1.0 1.0 0.00 0.00 0.00 31 1007.5
20260508210314 71 92 3.0 5.0 0.00 0.00 0.00 31 1007.8
20260508205813 71 235 2.0 3.0 0.00 0.00 0.00 31 1007.8
20260508205312 71 304 1.0 1.0 0.00 0.00 0.00 31 1007.8
20260508204813 71 304 1.0 2.0 0.00 0.00 0.00 31 1007.5
20260508204312 71 118 3.0 3.0 0.00 0.00 0.00 31 1007.8
20260508203814 70 345 4.0 5.0 0.00 0.00 0.00 31 1007.8
20260508203313 70 261 2.0 3.0 0.00 0.00 0.00 32 1007.8
20260508202815 70 284 4.0 7.0 0.00 0.00 0.00 31 1007.8
20260508202314 70 206 1.0 1.0 0.00 0.00 0.00 32 1007.8
20260508201811 70 35 1.0 2.0 0.00 0.00 0.00 31 1007.8
20260508201315 70 330 4.0 5.0 0.00 0.00 0.00 32 1007.8
20260508200811 70 297 2.0 2.0 0.00 0.00 0.00 31 1007.8
20260508200312 70 252 2.0 3.0 0.00 0.00 0.00 32 1007.8
20260508195813 70 197 2.0 2.0 0.00 0.00 0.00 31 1008.1
20260508195314 70 287 4.0 8.0 0.00 0.00 0.00 32 1007.8
20260508194811 69 297 3.0 6.0 0.00 0.00 0.00 31 1008.1
20260508194312 69 177 0.0 0.0 0.00 0.00 0.00 31 1008.1
20260508193813 69 351 2.0 2.0 0.00 0.00 0.00 31 1008.1
20260508193312 69 230 2.0 3.0 0.00 0.00 0.00 31 1008.1
20260508192814 69 126 0.0 1.0 0.00 0.00 0.00 32 1008.1
20260508192309 69 168 1.0 2.0 0.00 0.00 0.00 31 1008.1
20260508191813 69 337 3.0 6.0 0.00 0.00 0.00 31 1008.1
20260508191310 69 6 2.0 2.0 0.00 0.00 0.00 31 1008.1
20260508190812 69 200 0.0 0.0 0.00 0.00 0.00 32 1008.1
20260508190311 69 238 0.0 1.0 0.00 0.00 0.00 31 1008.1
20260508185812 69 75 3.0 3.0 0.00 0.00 0.00 32 1008.5
20260508185313 69 7 3.0 3.0 0.00 0.00 0.00 32 1008.5
20260508184815 69 39 2.0 3.0 0.00 0.00 0.00 32 1008.1
20260508184312 69 194 3.0 5.0 0.00 0.00 0.00 31 1008.5
20260508183814 68 76 3.0 3.0 0.00 0.00 0.00 32 1008.5
20260508183312 68 239 0.0 1.0 0.00 0.00 0.00 31 1008.5
20260508182810 68 142 0.0 1.0 0.00 0.00 0.00 31 1008.5
20260508182312 68 2 3.0 3.0 0.00 0.00 0.00 31 1008.5
20260508181813 68 162 2.0 2.0 0.00 0.00 0.00 32 1008.1
20260508181310 67 222 1.0 1.0 0.00 0.00 0.00 32 1008.5
20260508180812 67 314 3.0 3.0 0.00 0.00 0.00 33 1008.8
20260508180312 67 315 5.0 7.0 0.00 0.00 0.00 33 1008.5
20260508175813 67 254 0.0 1.0 0.00 0.00 0.00 32 1008.5
20260508175311 66 152 3.0 5.0 0.00 0.00 0.00 33 1008.5
20260508174814 66 64 2.0 3.0 0.00 0.00 0.00 33 1008.5
20260508174310 66 114 1.0 2.0 0.00 0.00 0.00 33 1008.5
20260508173813 66 256 3.0 5.0 0.00 0.00 0.00 34 1008.5
20260508173313 66 222 2.0 3.0 0.00 0.00 0.00 34 1008.8
20260508172821 65 257 1.0 1.0 0.00 0.00 0.00 34 1008.8
20260508172321 65 89 0.0 1.0 0.00 0.00 0.00 34 1008.5
20260508171820 65 79 3.0 5.0 0.00 0.00 0.00 35 1008.5
20260508171321 65 100 0.0 1.0 0.00 0.00 0.00 34 1008.5
20260508170822 65 315 4.0 6.0 0.00 0.00 0.00 34 1008.8
20260508170322 65 334 2.0 3.0 0.00 0.00 0.00 34 1008.5
20260508165819 65 210 1.0 2.0 0.00 0.00 0.00 35 1008.8
20260508165321 65 107 1.0 2.0 0.00 0.00 0.00 34 1008.8
20260508164819 64 49 3.0 6.0 0.00 0.00 0.00 35 1008.8
20260508164319 64 345 5.0 7.0 0.00 0.00 0.00 34 1008.8
20260508163819 63 221 1.0 1.0 0.00 0.00 0.00 35 1008.8
20260508163320 63 301 4.0 7.0 0.00 0.00 0.00 36 1008.8
20260508162821 62 281 5.0 7.0 0.00 0.00 0.00 36 1009.1
20260508162318 61 261 1.0 1.0 0.00 0.00 0.00 38 1008.8
20260508161819 61 79 2.0 2.0 0.00 0.00 0.00 39 1008.8
20260508161317 60 333 5.0 6.0 0.00 0.00 0.00 39 1008.8
20260508160818 60 136 1.0 3.0 0.00 0.00 0.00 39 1008.8
20260508160317 60 275 2.0 5.0 0.00 0.00 0.00 39 1008.8
20260508155818 60 322 6.0 7.0 0.00 0.00 0.00 40 1008.8
20260508155319 60 279 6.0 7.0 0.00 0.00 0.00 40 1008.8
20260508154816 60 261 2.0 2.0 0.00 0.00 0.00 40 1008.8
20260508154317 59 266 3.0 5.0 0.00 0.00 0.00 41 1008.8
20260508153816 59 351 4.0 6.0 0.00 0.00 0.00 41 1008.8
20260508153316 59 257 1.0 2.0 0.00 0.00 0.00 40 1008.8
20260508152816 58 189 3.0 5.0 0.00 0.00 0.00 41 1008.8
20260508152315 58 271 2.0 2.0 0.00 0.00 0.00 41 1008.8
20260508151815 58 279 0.0 1.0 0.00 0.00 0.00 41 1008.8
20260508151316 57 193 3.0 5.0 0.00 0.00 0.00 42 1008.8
20260508150816 57 304 3.0 5.0 0.00 0.00 0.00 42 1008.5
20260508150316 57 273 4.0 6.0 0.00 0.00 0.00 42 1008.5
20260508145815 56 312 4.0 5.0 0.00 0.00 0.00 42 1008.8
20260508145316 56 285 4.0 5.0 0.00 0.00 0.00 43 1008.8
20260508144815 55 287 3.0 5.0 0.00 0.00 0.00 43 1008.5
20260508144318 55 249 1.0 2.0 0.00 0.00 0.00 43 1008.8
20260508143813 54 295 4.0 5.0 0.00 0.00 0.00 43 1008.5
20260508143314 54 213 2.0 2.0 0.00 0.00 0.00 44 1008.5
20260508142814 54 237 2.0 2.0 0.00 0.00 0.00 45 1008.8
20260508142313 53 289 1.0 2.0 0.00 0.00 0.00 45 1008.8
20260508141816 53 334 5.0 8.0 0.00 0.00 0.00 45 1008.8
20260508141312 53 175 1.0 2.0 0.00 0.00 0.00 46 1008.5
20260508140814 53 293 5.0 6.0 0.00 0.00 0.00 46 1008.5
20260508140314 52 343 6.0 7.0 0.00 0.00 0.00 46 1008.8
20260508135813 52 240 2.0 3.0 0.00 0.00 0.00 48 1008.8
20260508135313 51 280 1.0 2.0 0.00 0.00 0.00 48 1008.5
20260508134811 51 275 2.0 3.0 0.00 0.00 0.00 48 1008.8
20260508134314 51 234 1.0 2.0 0.00 0.00 0.00 49 1008.5
20260508133814 50 282 2.0 2.0 0.00 0.00 0.00 49 1008.8
20260508133312 50 268 1.0 2.0 0.00 0.00 0.00 50 1008.8
20260508132813 50 310 3.0 3.0 0.00 0.00 0.00 50 1008.8
20260508132313 50 244 2.0 2.0 0.00 0.00 0.00 51 1008.5
20260508131812 49 256 1.0 1.0 0.00 0.00 0.00 52 1008.8
20260508131242 49 305 1.0 3.0 0.00 0.00 0.00 52 1008.5
20260508130741 49 246 2.0 3.0 0.00 0.00 0.00 53 1008.8
20260508130239 49 214 0.0 0.0 0.00 0.00 0.00 54 1008.5
20260508125741 49 300 1.0 2.0 0.00 0.00 0.00 54 1008.8
20260508125235 49 355 1.0 2.0 0.00 0.00 0.00 54 1008.5
20260508124741 49 291 2.0 3.0 0.00 0.00 0.00 54 1008.5
20260508124243 49 298 2.0 2.0 0.00 0.00 0.00 53 1008.8
20260508123741 49 269 4.0 5.0 0.00 0.00 0.00 52 1008.5
20260508123238 49 239 1.0 1.0 0.00 0.00 0.00 52 1008.8
20260508122714 48 231 1.0 1.0 0.00 0.00 0.00 53 1008.5
20260508122213 48 231 1.0 1.0 0.00 0.00 0.00 54 1008.5
20260508121712 47 298 3.0 3.0 0.00 0.00 0.00 54 1008.5
20260508121212 46 285 2.0 2.0 0.00 0.00 0.00 54 1008.5
20260508120711 45 286 2.0 2.0 0.00 0.00 0.00 55 1008.5
20260508120211 45 262 1.0 2.0 0.00 0.00 0.00 57 1008.5
20260508115711 44 233 0.0 1.0 0.00 0.00 0.00 59 1008.5
20260508115212 44 238 0.0 0.0 0.00 0.00 0.00 62 1008.5
20260508114713 43 251 0.0 0.0 0.00 0.00 0.00 66 1008.5
20260508114213 43 235 0.0 0.0 0.00 0.00 0.00 69 1008.5
20260508113713 44 235 0.0 0.0 0.00 0.00 0.00 70 1008.5
20260508113210 44 235 0.0 0.0 0.00 0.00 0.00 69 1008.5
20260508112713 44 235 0.0 0.0 0.00 0.00 0.00 69 1008.5
20260508112212 44 236 0.0 0.0 0.00 0.00 0.00 71 1008.5
20260508111710 44 236 0.0 0.0 0.00 0.00 0.00 71 1008.5
20260508111237 44 236 0.0 0.0 0.00 0.00 0.00 71 1008.5
20260508110814 44 236 0.0 0.0 0.00 0.00 0.00 71 1008.5
20260508110349 44 236 0.0 0.0 0.00 0.00 0.00 70 1008.5
20260508105849 44 236 0.0 0.0 0.00 0.00 0.00 69 1008.1
20260508105347 44 236 0.0 0.0 0.00 0.00 0.00 68 1008.5
20260508104846 44 235 0.0 0.0 0.00 0.00 0.00 69 1008.5
20260508104346 44 237 0.0 0.0 0.00 0.00 0.00 70 1008.5
20260508103848 45 227 0.0 0.0 0.00 0.00 0.00 70 1008.5
20260508103344 45 236 0.0 0.0 0.00 0.00 0.00 70 1008.5
20260508102848 45 201 0.0 0.0 0.00 0.00 0.00 70 1008.5
20260508102347 45 238 0.0 0.0 0.00 0.00 0.00 70 1008.5
20260508101842 45 239 0.0 0.0 0.00 0.00 0.00 68 1008.5
20260508101345 45 239 0.0 0.0 0.00 0.00 0.00 69 1008.5
20260508100843 45 239 0.0 1.0 0.00 0.00 0.00 70 1008.5
20260508100345 45 238 0.0 0.0 0.00 0.00 0.00 70 1008.5
20260508095845 45 239 0.0 0.0 0.00 0.00 0.00 71 1008.1
20260508095342 45 237 0.0 1.0 0.00 0.00 0.00 71 1008.5
20260508094844 45 254 0.0 1.0 0.00 0.00 0.00 71 1008.5
20260508094342 46 275 1.0 2.0 0.00 0.00 0.00 71 1008.1
20260508093844 46 281 2.0 2.0 0.00 0.00 0.00 71 1008.5
20260508093342 47 258 1.0 2.0 0.00 0.00 0.00 70 1008.1
20260508092843 48 290 2.0 2.0 0.00 0.00 0.00 69 1008.1
20260508092341 48 242 1.0 1.0 0.00 0.00 0.00 68 1008.5
20260508091841 49 239 0.0 1.0 0.00 0.00 0.00 68 1008.5
20260508091342 49 237 0.0 0.0 0.00 0.00 0.00 66 1008.5
20260508090841 49 253 0.0 1.0 0.00 0.00 0.00 64 1008.5
20260508090342 49 272 1.0 2.0 0.00 0.00 0.00 62 1008.5
20260508085843 49 250 1.0 1.0 0.00 0.00 0.00 62 1008.8
20260508085341 49 273 1.0 1.0 0.00 0.00 0.00 63 1008.5
20260508084840 49 277 3.0 3.0 0.00 0.00 0.00 63 1008.5
20260508084343 49 276 2.0 2.0 0.00 0.00 0.00 63 1008.5
20260508083841 49 281 2.0 2.0 0.00 0.00 0.00 63 1008.8
20260508083341 49 315 1.0 2.0 0.00 0.00 0.00 65 1008.5
20260508082840 49 311 1.0 1.0 0.00 0.00 0.00 65 1008.8
20260508082340 49 247 0.0 1.0 0.00 0.00 0.00 65 1008.5
20260508081841 50 241 0.0 0.0 0.00 0.00 0.00 65 1008.8
20260508081341 50 240 0.0 0.0 0.00 0.00 0.00 65 1008.8
20260508080839 50 239 0.0 0.0 0.00 0.00 0.00 65 1008.8
20260508080340 50 238 0.0 0.0 0.00 0.00 0.00 66 1008.8
20260508075839 50 238 0.0 0.0 0.00 0.00 0.00 67 1008.8
20260508075340 50 238 0.0 0.0 0.00 0.00 0.00 67 1008.8
20260508074839 51 238 0.0 0.0 0.00 0.00 0.00 65 1009.1
20260508074337 51 238 0.0 0.0 0.00 0.00 0.00 64 1008.8
20260508073837 51 257 0.0 1.0 0.00 0.00 0.00 63 1008.8
20260508073339 51 250 0.0 1.0 0.00 0.00 0.00 63 1008.8
20260508072837 51 271 0.0 1.0 0.00 0.00 0.00 63 1008.8
20260508072339 51 245 0.0 0.0 0.00 0.00 0.00 63 1008.8
20260508071837 52 251 1.0 1.0 0.00 0.00 0.00 63 1008.8
20260508071338 52 232 1.0 1.0 0.00 0.00 0.00 62 1008.8
20260508070839 52 232 0.0 1.0 0.00 0.00 0.00 62 1008.8
20260508070337 52 271 1.0 1.0 0.00 0.00 0.00 62 1009.1
20260508065838 53 235 1.0 2.0 0.00 0.00 0.00 62 1008.8
20260508065337 53 298 2.0 2.0 0.00 0.00 0.00 61 1009.1
20260508064836 53 278 0.0 1.0 0.00 0.00 0.00 60 1008.8
20260508064334 53 237 1.0 1.0 0.00 0.00 0.00 60 1009.1
20260508063834 54 225 0.0 1.0 0.00 0.00 0.00 59 1008.8
20260508063336 54 195 1.0 1.0 0.00 0.00 0.00 58 1008.8
20260508062835 54 239 0.0 1.0 0.00 0.00 0.00 57 1008.8
20260508062336 54 231 0.0 1.0 0.00 0.00 0.00 56 1009.1
20260508061834 54 239 0.0 1.0 0.00 0.00 0.00 56 1009.1
20260508061333 55 249 1.0 1.0 0.00 0.00 0.00 56 1009.1
20260508060833 55 248 0.0 0.0 0.00 0.00 0.00 56 1009.1
20260508060334 55 248 0.0 1.0 0.00 0.00 0.00 56 1009.1
20260508055834 55 254 0.0 1.0 0.00 0.00 0.00 56 1009.5
20260508055334 55 239 0.0 0.0 0.00 0.00 0.00 55 1009.5
20260508054833 56 237 0.0 0.0 0.00 0.00 0.00 55 1009.5
20260508054332 56 254 1.0 1.0 0.00 0.00 0.00 54 1009.1
20260508053834 56 247 0.0 1.0 0.00 0.00 0.00 53 1009.1
20260508053333 56 242 1.0 1.0 0.00 0.00 0.00 53 1009.1
20260508052832 56 238 0.0 1.0 0.00 0.00 0.00 54 1009.1
20260508052331 56 235 0.0 0.0 0.00 0.00 0.00 53 1009.1
20260508051831 56 239 0.0 1.0 0.00 0.00 0.00 53 1009.1
20260508051331 56 242 0.0 1.0 0.00 0.00 0.00 53 1009.5
20260508050831 56 234 0.0 0.0 0.00 0.00 0.00 52 1009.1
20260508050332 57 225 0.0 0.0 0.00 0.00 0.00 52 1009.5
20260508045832 57 232 0.0 1.0 0.00 0.00 0.00 52 1009.5
20260508045333 57 248 1.0 1.0 0.00 0.00 0.00 52 1009.5
20260508044830 57 261 1.0 1.0 0.00 0.00 0.00 52 1009.8
20260508044330 58 242 0.0 0.0 0.00 0.00 0.00 53 1009.8
20260508043831 58 242 0.0 1.0 0.00 0.00 0.00 52 1009.5
20260508043330 58 252 0.0 1.0 0.00 0.00 0.00 51 1009.5
20260508042832 59 234 0.0 1.0 0.00 0.00 0.00 51 1009.8
20260508042333 59 246 0.0 0.0 0.00 0.00 0.00 50 1009.5
20260508041830 59 231 0.0 0.0 0.00 0.00 0.00 50 1009.5
20260508041329 59 238 0.0 0.0 0.00 0.00 0.00 50 1009.5
20260508040832 59 227 0.0 0.0 0.00 0.00 0.00 49 1009.5